sat.trackr.live / text

‹ back to catalog

STARLINK-32176

NORAD 60340 · 2024-136M

PAYLOAD ACTIVE UNKNOWN

§ Identity

Operator
Country
US
Launch date
2024-08-02
Launch site
AFETR
Launch vehicle
Mass (kg)
RCS (m²)

Purposes: comms

External: N2YO · Heavens-Above · Gunter

§ Orbital elements

Epoch: 2026-05-25T02:26:20.736960Z

Period
94.11 min
Inclination
53.1601°
Eccentricity
0.0001014
Mean motion
15.30198237 rev/d
Perigee alt
474.5 km
Apogee alt
475.9 km
Semi-major
6,853.4 km
B*
1.3263e-4
RAAN
80.7339°
Arg perigee
88.4199°
Mean anomaly
271.6918°
Rev number
10,253

§ Raw data

STARLINK-321761 60340U 24136M   26145.10162890  .00003571  00000+0  13263-3 0  99972 60340  53.1601  80.7339 0001014  88.4199 271.6918 15.30198237102530

JSON: /api/v1/satellites/60340 · /tle

For live sub-satellite position, see the globe view (requires WebGL).

§ Visibility from observer

Set your observer location to see the next 7 days of passes ≥ 10°. The values pass through the URL so the page stays shareable.

No JS? Fill the form by hand. The geolocation button needs JavaScript.